Alliance, NE

4:15 AM MDT on October 16, 2019 (GMT -0600)
Alliance Municipal

Weather History for KAIA - May, 2019

Change the Weather History Date:

Monday, May 20, 2019

  Actual Average Record
Temperature  
Mean Temperature 37 °F -  
Max Temperature 39 °F 70 °F 91 °F (1992)
Min Temperature 35 °F 44 °F 23 °F (1931)
Degree Days  
Heating Degree Days 28    
Moisture  
Dew Point 37 °F    
Average Humidity 99    
Maximum Humidity 100    
Minimum Humidity 83    
Precipitation  
Precipitation 0.62 in - - ()
Sea Level Pressure  
Sea Level Pressure 29.95 in    
Wind  
Wind Speed 13 mph (East)    
Max Wind Speed 16 mph    
Max Gust Speed -    
Visibility 8 miles    
Events Rain , Snow    
Averages and records for this station are not official NWS values.
T = Trace of Precipitation, MM = Missing Value Source: NWS Daily Summary

Daily Weather History Graph

Daily Weather History Graph

Search for Another Location

Airport or City:

Astronomy

May. 20, 2019 Rise Set
Actual Time 5:26 AM MDT 8:09 PM MDT
Civil Twilight 4:53 AM MDT 8:42 PM MDT
Nautical Twilight 4:12 AM MDT 9:23 PM MDT
Astronomical Twilight 3:26 AM MDT 10:10 PM MDT
Moon 10:13 PM MDT (5/20) 6:55 AM MDT (5/20)
Length of Visible Light 15h 48m
Length of Day
14h 43m
Waning Gibbous, 96% of the Moon is Illuminated
May 20
Waning Gibbous
May 26
Last Quarter
Jun 3
New
Jun 10
First Quarter
Jun 17
Full

Hourly Weather History & Observations

Time (MDT) Temp. Windchill Dew Point Humidity Pressure Visibility Wind Dir Wind Speed Gust Speed Precip Events Conditions
12:53 AM 37.9 °F 29.2 °F 33.1 °F 83% 30.04 in 10.0 mi East 15.0 mph - 0.00 in Rain Light Rain
1:53 AM 37.9 °F 30.5 °F 34.0 °F 86% 30.05 in 10.0 mi East 11.5 mph - 0.00 in   Overcast
2:53 AM 36.0 °F 27.1 °F 35.1 °F 97% 30.04 in 10.0 mi ESE 13.8 mph - 0.00 in Rain Light Rain
3:03 AM 36.0 °F 26.7 °F 35.1 °F 97% 30.03 in 10.0 mi East 15.0 mph - 0.00 in   Overcast
3:45 AM 36.0 °F 27.5 °F 35.1 °F 97% 30.02 in 10.0 mi East 12.7 mph - 0.01 in Rain Light Rain
3:51 AM 35.6 °F 27.1 °F 35.6 °F 100% 30.01 in 10.0 mi East 12.7 mph - 0.01 in Rain Light Rain
3:53 AM 36.0 °F 27.5 °F 36.0 °F 100% 30.03 in 10.0 mi East 12.7 mph - 0.01 in Rain Light Rain
4:02 AM 36.0 °F 28.0 °F 36.0 °F 100% 30.02 in 10.0 mi East 11.5 mph - 0.00 in Rain Light Rain
4:15 AM 36.0 °F 27.5 °F 36.0 °F 100% 30.02 in 10.0 mi East 12.7 mph - 0.00 in   Overcast
4:25 AM 36.0 °F 28.0 °F 35.1 °F 97% 30.02 in 10.0 mi East 11.5 mph - 0.00 in Rain Light Rain
4:53 AM 36.0 °F 28.5 °F 35.1 °F 97% 30.02 in 10.0 mi East 10.4 mph - 0.00 in Rain Light Rain
5:02 AM 36.0 °F 29.0 °F 36.0 °F 100% 30.00 in 10.0 mi East 9.2 mph - 0.00 in   Overcast
5:53 AM 36.0 °F 27.5 °F 35.1 °F 97% 30.00 in 10.0 mi East 12.7 mph - 0.00 in   Overcast
6:53 AM 36.0 °F 27.5 °F 36.0 °F 100% 30.00 in 10.0 mi ESE 12.7 mph - N/A   Overcast
7:53 AM 37.0 °F 28.1 °F 37.0 °F 100% 30.01 in 4.0 mi ESE 15.0 mph - 0.01 in Rain Light Rain
8:21 AM 37.0 °F 27.7 °F 37.0 °F 100% 29.99 in 5.0 mi ESE 16.1 mph - 0.01 in Rain Light Rain
8:32 AM 37.0 °F 28.9 °F 37.0 °F 100% 29.99 in 7.0 mi ESE 12.7 mph - 0.01 in   Overcast
8:53 AM 37.0 °F 28.9 °F 37.0 °F 100% 30.02 in 4.0 mi ESE 12.7 mph - 0.01 in Rain Light Rain
9:53 AM 37.9 °F 30.0 °F 37.0 °F 97% 30.00 in 5.0 mi ESE 12.7 mph - 0.01 in Rain Light Rain
10:19 AM 37.9 °F 30.0 °F 37.9 °F 100% 29.97 in 9.0 mi ESE 12.7 mph - 0.01 in Rain Light Rain
10:53 AM 37.9 °F 29.6 °F 37.9 °F 100% 30.00 in 10.0 mi ESE 13.8 mph - 0.02 in Rain Light Rain
11:01 AM 39.0 °F 31.4 °F 37.9 °F 96% 29.97 in 10.0 mi ESE 12.7 mph - 0.00 in Rain Light Rain
11:32 AM 39.0 °F 31.4 °F 37.9 °F 96% 29.96 in 8.0 mi ESE 12.7 mph - 0.01 in Rain Light Rain
11:53 AM 37.0 °F 28.5 °F 37.0 °F 100% 29.99 in 5.0 mi ESE 13.8 mph - 0.06 in Rain Light Rain
12:48 PM 35.6 °F 30.7 °F 35.6 °F 100% 29.94 in 10.0 mi East 5.8 mph - 0.07 in Rain Light Rain
12:53 PM 37.0 °F 29.8 °F 37.0 °F 100% 29.97 in 10.0 mi East 10.4 mph - 0.07 in Rain Light Rain
1:11 PM 37.0 °F 29.8 °F 37.0 °F 100% 29.94 in 2.0 mi East 10.4 mph - 0.02 in Rain Light Rain
1:20 PM 37.9 °F 31.5 °F 37.9 °F 100% 29.93 in 5.0 mi East 9.2 mph - 0.02 in Rain Light Rain
1:36 PM 37.9 °F 30.5 °F 37.0 °F 97% 29.92 in 4.0 mi East 11.5 mph - 0.04 in Rain Light Rain
1:53 PM 37.9 °F 30.5 °F 37.9 °F 100% 29.95 in 7.0 mi East 11.5 mph - 0.05 in Rain Light Rain
2:01 PM 37.9 °F 30.0 °F 37.9 °F 100% 29.92 in 8.0 mi East 12.7 mph - 0.00 in Rain Light Rain
2:09 PM 37.9 °F 30.5 °F 37.9 °F 100% 29.92 in 9.0 mi East 11.5 mph - 0.00 in Rain Light Rain
2:53 PM 37.9 °F 31.5 °F 37.9 °F 100% 29.96 in 5.0 mi ENE 9.2 mph - 0.03 in Rain Light Rain
3:03 PM 37.9 °F 31.5 °F 37.9 °F 100% 29.91 in 1.8 mi NE 9.2 mph - 0.01 in Rain Light Rain
3:14 PM 37.9 °F 32.1 °F 37.9 °F 100% 29.91 in 1.2 mi ENE 8.1 mph - 0.02 in Snow Light Snow
3:25 PM 39.0 °F 34.0 °F 39.0 °F 100% 29.91 in 1.8 mi ENE 6.9 mph - 0.03 in Rain Light Rain
3:32 PM 39.0 °F 31.4 °F 39.0 °F 100% 29.91 in 2.5 mi East 12.7 mph - 0.03 in Rain Light Rain
3:42 PM 39.9 °F 32.5 °F 39.9 °F 100% 29.91 in 2.5 mi East 12.7 mph - 0.03 in Rain Light Rain
3:53 PM 39.0 °F 32.3 °F 39.0 °F 100% 29.94 in 4.0 mi East 10.4 mph - 0.05 in Rain Rain
4:09 PM 39.0 °F 31.0 °F 39.0 °F 100% 29.90 in 5.0 mi East 13.8 mph - 0.03 in Rain Rain
4:23 PM 39.0 °F 31.8 °F 39.0 °F 100% 29.90 in 9.0 mi East 11.5 mph - 0.04 in Rain Light Rain
4:53 PM 39.0 °F 31.0 °F 37.9 °F 96% 29.93 in 10.0 mi East 13.8 mph - 0.06 in Rain Light Rain
5:11 PM 39.0 °F 31.4 °F 37.9 °F 96% 29.90 in 8.0 mi East 12.7 mph - 0.00 in Rain Light Rain
5:28 PM 37.9 °F 29.2 °F 37.9 °F 100% 29.90 in 7.0 mi East 15.0 mph - 0.01 in Rain Light Rain
5:45 PM 37.9 °F 29.6 °F 37.9 °F 100% 29.89 in 8.0 mi ENE 13.8 mph - 0.01 in Rain Light Rain
5:53 PM 37.9 °F 29.6 °F 37.9 °F 100% 29.93 in 10.0 mi East 13.8 mph - 0.01 in Rain Light Rain
6:01 PM 37.9 °F 29.6 °F 37.0 °F 97% 29.89 in 10.0 mi East 13.8 mph - 0.00 in Rain Light Rain
6:44 PM 37.0 °F 27.7 °F 37.0 °F 100% 29.88 in 10.0 mi East 16.1 mph - 0.01 in Rain Light Rain
6:53 PM 37.0 °F 29.3 °F 37.0 °F 100% 29.92 in 7.0 mi East 11.5 mph - 0.01 in Rain Light Rain
7:02 PM 37.0 °F 28.5 °F 37.0 °F 100% 29.88 in 8.0 mi East 13.8 mph - 0.01 in Rain Light Rain
7:13 PM 37.0 °F 27.7 °F 37.0 °F 100% 29.88 in 10.0 mi East 16.1 mph - 0.01 in Rain Light Rain
7:22 PM 37.0 °F 28.5 °F 37.0 °F 100% 29.88 in 10.0 mi East 13.8 mph - 0.01 in   Overcast
7:53 PM 36.0 °F 28.5 °F 36.0 °F 100% 29.92 in 7.0 mi ENE 10.4 mph - 0.04 in Rain Light Rain
8:15 PM 37.0 °F 28.9 °F 37.0 °F 100% 29.87 in 9.0 mi East 12.7 mph - 0.01 in Rain Light Rain
8:22 PM 37.0 °F 28.9 °F 37.0 °F 100% 29.87 in 10.0 mi East 12.7 mph - 0.01 in Rain Light Rain
8:53 PM 37.0 °F 29.3 °F 37.0 °F 100% 29.91 in 6.0 mi East 11.5 mph - 0.04 in Rain Light Rain
9:04 PM 37.0 °F 28.5 °F 37.0 °F 100% 29.87 in 7.0 mi East 13.8 mph - 0.01 in Rain Light Rain
9:25 PM 37.0 °F 28.9 °F 37.0 °F 100% 29.88 in 7.0 mi East 12.7 mph - 0.02 in Rain Light Rain
9:32 PM 37.0 °F 28.9 °F 37.0 °F 100% 29.88 in 6.0 mi East 12.7 mph - 0.03 in Rain Rain
9:53 PM 37.0 °F 30.4 °F 37.0 °F 100% 29.91 in 8.0 mi ENE 9.2 mph - 0.06 in Rain Light Rain
10:07 PM 37.0 °F 29.8 °F 37.0 °F 100% 29.87 in 8.0 mi East 10.4 mph - 0.01 in Rain Light Rain
10:53 PM 37.0 °F 28.9 °F 37.0 °F 100% 29.89 in 8.0 mi East 12.7 mph - 0.04 in Rain Light Rain
11:53 PM 37.0 °F 27.7 °F 37.0 °F 100% 29.87 in 8.0 mi East 16.1 mph - 0.04 in Rain Light Rain